• Em Portugal
  • Lista de países
  • Para 7 dias
  • Temperatura da água
  • Mapas de satélite
  • Mapa do tempo
  • Widgets de tempo
  • user-avatar
    Iniciar Sessão

    Previsão horária em Tehran

    Hoje, 24 Janeiro, Quarta-feira

    Tempo Temperatura Precipitação Vento Pressão Humidade
    00:00 +9°C° 0 mm 2 m/s 660 mmHg 32%
    01:00 +8°C° 0,2 mm 2 m/s 660 mmHg 40%
    02:00 +8°C° 0,2 mm 2 m/s 660 mmHg 48%
    03:00 +8°C° 0,2 mm 2 m/s 660 mmHg 56%
    04:00 +8°C° 0,1 mm 2 m/s 660 mmHg 57%
    05:00 +8°C° 0,1 mm 2 m/s 660 mmHg 59%
    06:00 +7°C° 0,1 mm 2 m/s 660 mmHg 60%
    07:00 +8°C° 0 mm 2 m/s 661 mmHg 56%
    08:00 +9°C° 0 mm 2 m/s 661 mmHg 51%
    09:00 +10°C° 0 mm 2 m/s 662 mmHg 46%
    10:00 +12°C° 0 mm 2 m/s 662 mmHg 42%
    11:00 +13°C° 0 mm 2 m/s 662 mmHg 39%
    12:00 +14°C° 0 mm 2 m/s 662 mmHg 35%
    13:00 +14°C° 0 mm 2 m/s 662 mmHg 34%
    14:00 +14°C° 0 mm 2 m/s 662 mmHg 34%
    15:00 +14°C° 0 mm 2 m/s 662 mmHg 33%
    16:00 +13°C° 0 mm 2 m/s 662 mmHg 33%
    17:00 +12°C° 0 mm 2 m/s 662 mmHg 33%
    18:00 +9°C° 0 mm 2 m/s 663 mmHg 33%
    19:00 +9°C° 0 mm 2 m/s 663 mmHg 31%
    20:00 +8°C° 0 mm 2 m/s 663 mmHg 30%
    21:00 +8°C° 0 mm 2 m/s 663 mmHg 28%
    22:00 +9°C° 0 mm 1 m/s 663 mmHg 27%
    23:00 +9°C° 0 mm 1 m/s 663 mmHg 25%

    Amanhã, 25 Janeiro, Quinta-feira

    Tempo Temperatura Precipitação Vento Pressão Humidade
    00:00 +8°C° 0 mm 1 m/s 663 mmHg 24%
    01:00 +8°C° 0 mm 1 m/s 663 mmHg 25%
    02:00 +8°C° 0 mm 1 m/s 663 mmHg 26%
    03:00 +8°C° 0 mm 1 m/s 663 mmHg 27%
    04:00 +7°C° 0 mm 1 m/s 663 mmHg 30%
    05:00 +7°C° 0 mm 1 m/s 664 mmHg 32%
    06:00 +7°C° 0 mm 1 m/s 664 mmHg 35%
    07:00 +8°C° 0 mm 1 m/s 664 mmHg 36%
    08:00 +9°C° 0 mm 1 m/s 665 mmHg 37%
    09:00 +10°C° 0 mm 2 m/s 666 mmHg 38%
    10:00 +12°C° 0 mm 2 m/s 666 mmHg 37%
    11:00 +12°C° 0 mm 2 m/s 666 mmHg 36%
    12:00 +13°C° 0 mm 2 m/s 666 mmHg 36%
    13:00 +13°C° 0 mm 2 m/s 665 mmHg 35%
    14:00 +13°C° 0 mm 2 m/s 665 mmHg 35%
    15:00 +13°C° 0 mm 2 m/s 665 mmHg 35%
    16:00 +12°C° 0 mm 2 m/s 665 mmHg 37%
    17:00 +10°C° 0 mm 2 m/s 665 mmHg 38%
    18:00 +9°C° 0 mm 2 m/s 665 mmHg 39%
    19:00 +9°C° 0 mm 2 m/s 665 mmHg 38%
    20:00 +8°C° 0 mm 2 m/s 665 mmHg 37%
    21:00 +8°C° 0 mm 2 m/s 665 mmHg 36%
    22:00 +8°C° 0 mm 2 m/s 665 mmHg 35%
    23:00 +7°C° 0 mm 2 m/s 665 mmHg 35%

    Depois de amanhã, 26 Janeiro, Sexta-feira

    Tempo Temperatura Precipitação Vento Pressão Humidade
    00:00 +7°C° 0 mm 2 m/s 664 mmHg 35%
    01:00 +7°C° 0 mm 2 m/s 664 mmHg 35%
    02:00 +7°C° 0 mm 2 m/s 664 mmHg 35%
    03:00 +8°C° 0 mm 1 m/s 664 mmHg 35%
    04:00 +8°C° 0,2 mm 1 m/s 664 mmHg 40%
    05:00 +7°C° 0,2 mm 2 m/s 665 mmHg 46%
    06:00 +7°C° 0,2 mm 2 m/s 665 mmHg 52%
    07:00 +8°C° 0,1 mm 2 m/s 665 mmHg 51%
    08:00 +9°C° 0,1 mm 2 m/s 665 mmHg 50%
    09:00 +10°C° 0,1 mm 2 m/s 665 mmHg 49%
    10:00 +10°C° 0 mm 2 m/s 665 mmHg 46%
    11:00 +11°C° 0 mm 3 m/s 665 mmHg 43%
    12:00 +11°C° 0 mm 3 m/s 664 mmHg 40%
    13:00 +12°C° 0 mm 3 m/s 664 mmHg 39%
    14:00 +12°C° 0 mm 3 m/s 664 mmHg 38%
    15:00 +12°C° 0 mm 3 m/s 663 mmHg 38%
    16:00 +11°C° 0 mm 3 m/s 663 mmHg 40%
    17:00 +11°C° 0 mm 3 m/s 664 mmHg 42%
    18:00 +10°C° 0 mm 2 m/s 664 mmHg 44%
    19:00 +9°C° 0 mm 2 m/s 664 mmHg 44%
    20:00 +9°C° 0 mm 2 m/s 664 mmHg 44%
    21:00 +9°C° 0 mm 2 m/s 664 mmHg 45%
    22:00 +8°C° 0 mm 2 m/s 663 mmHg 45%
    23:00 +8°C° 0 mm 2 m/s 663 mmHg 45%

    27 Janeiro, Sábado

    Tempo Temperatura Precipitação Vento Pressão Humidade
    00:00 +7°C° 0 mm 2 m/s 663 mmHg 45%
    01:00 +7°C° 0 mm 2 m/s 663 mmHg 45%
    02:00 +8°C° 0 mm 1 m/s 662 mmHg 45%
    03:00 +7°C° 0 mm 1 m/s 662 mmHg 46%
    04:00 +7°C° 0 mm 1 m/s 662 mmHg 47%
    05:00 +7°C° 0 mm 1 m/s 662 mmHg 48%
    06:00 +7°C° 0 mm 1 m/s 662 mmHg 49%
    07:00 +8°C° 0,1 mm 1 m/s 662 mmHg 50%
    08:00 +7°C° 0,1 mm 2 m/s 663 mmHg 51%
    09:00 +8°C° 0,1 mm 2 m/s 663 mmHg 52%
    10:00 +8°C° 0,2 mm 2 m/s 663 mmHg 53%
    11:00 +8°C° 0,2 mm 3 m/s 662 mmHg 55%
    12:00 +8°C° 0,2 mm 3 m/s 662 mmHg 57%
    13:00 +8°C° 0,4 mm 3 m/s 662 mmHg 57%
    14:00 +8°C° 0,4 mm 3 m/s 662 mmHg 57%
    15:00 +8°C° 0,4 mm 3 m/s 662 mmHg 58%
    16:00 +8°C° 0,2 mm 2 m/s 662 mmHg 59%
    17:00 +7°C° 0,2 mm 2 m/s 663 mmHg 61%
    18:00 +7°C° 0,2 mm 2 m/s 663 mmHg 63%
    19:00 +5°C° 0,3 mm 3 m/s 663 mmHg 66%
    20:00 +5°C° 0,3 mm 3 m/s 664 mmHg 68%
    21:00 +4°C° 0,3 mm 3 m/s 664 mmHg 71%
    22:00 +4°C° 0,2 mm 4 m/s 664 mmHg 71%
    23:00 +3°C° 0,2 mm 4 m/s 664 mmHg 70%

    28 Janeiro, Domingo

    Tempo Temperatura Precipitação Vento Pressão Humidade
    00:00 +3°C° 0,2 mm 4 m/s 664 mmHg 70%
    01:00 +1°C° 0,1 mm 5 m/s 664 mmHg 68%
    02:00 +1°C° 0,1 mm 5 m/s 664 mmHg 66%
    03:00 +1°C° 0,1 mm 5 m/s 664 mmHg 64%
    04:00 0°C° 0 mm 5 m/s 664 mmHg 63%
    05:00 0°C° 0 mm 5 m/s 665 mmHg 62%
    06:00 -1°C° 0 mm 5 m/s 665 mmHg 61%
    07:00 0°C° 0 mm 5 m/s 665 mmHg 59%
    08:00 0°C° 0 mm 5 m/s 666 mmHg 57%
    09:00 +1°C° 0 mm 5 m/s 667 mmHg 55%
    10:00 +1°C° 0 mm 5 m/s 667 mmHg 53%
    11:00 +2°C° 0 mm 5 m/s 667 mmHg 50%
    12:00 +3°C° 0 mm 5 m/s 667 mmHg 48%
    13:00 +3°C° 0 mm 5 m/s 667 mmHg 49%
    14:00 +3°C° 0 mm 5 m/s 667 mmHg 49%
    15:00 +3°C° 0 mm 5 m/s 667 mmHg 49%
    16:00 +2°C° 0 mm 5 m/s 667 mmHg 50%
    17:00 +1°C° 0 mm 5 m/s 668 mmHg 52%
    18:00 0°C° 0 mm 5 m/s 668 mmHg 54%
    19:00 -1°C° 0 mm 5 m/s 668 mmHg 54%
    20:00 -1°C° 0 mm 5 m/s 668 mmHg 55%
    21:00 -2°C° 0 mm 5 m/s 668 mmHg 55%
    22:00 -2°C° 0 mm 5 m/s 668 mmHg 55%
    23:00 -3°C° 0 mm 4 m/s 668 mmHg 55%

    29 Janeiro, Segunda-feira

    Tempo Temperatura Precipitação Vento Pressão Humidade
    00:00 -3°C° 0 mm 4 m/s 668 mmHg 55%
    01:00 -3°C° 0 mm 4 m/s 668 mmHg 55%
    02:00 -4°C° 0 mm 4 m/s 668 mmHg 55%
    03:00 -4°C° 0 mm 4 m/s 667 mmHg 55%
    04:00 -4°C° 0 mm 4 m/s 668 mmHg 55%
    05:00 -5°C° 0 mm 4 m/s 668 mmHg 54%
    06:00 -5°C° 0 mm 4 m/s 668 mmHg 54%
    07:00 -4°C° 0 mm 3 m/s 668 mmHg 52%
    08:00 -2°C° 0 mm 3 m/s 669 mmHg 50%
    09:00 -1°C° 0 mm 3 m/s 669 mmHg 47%
    10:00 0°C° 0 mm 3 m/s 669 mmHg 45%
    11:00 +1°C° 0 mm 2 m/s 669 mmHg 44%
    12:00 +2°C° 0 mm 2 m/s 668 mmHg 42%
    13:00 +2°C° 0 mm 2 m/s 668 mmHg 43%
    14:00 +3°C° 0 mm 2 m/s 668 mmHg 44%
    15:00 +3°C° 0 mm 2 m/s 668 mmHg 45%
    16:00 +1°C° 0 mm 3 m/s 668 mmHg 49%
    17:00 0°C° 0 mm 3 m/s 668 mmHg 52%
    18:00 -1°C° 0 mm 3 m/s 668 mmHg 56%
    19:00 -2°C° 0 mm 3 m/s 668 mmHg 55%
    20:00 -2°C° 0 mm 3 m/s 668 mmHg 55%
    21:00 -4°C° 0 mm 3 m/s 668 mmHg 55%
    22:00 -4°C° 0 mm 3 m/s 668 mmHg 54%
    23:00 -4°C° 0 mm 3 m/s 668 mmHg 53%
    Mostrar mais